Location: Codford Saint Peter
(51.1597°N, 2.0531°W)
Time: 16:14:33
(UTC+00:00)

Envisat - Pass Details

Date: 01 February 2022
Orbit: 764 x 765 km, 98.2° (Epoch: 19 May)

Event Time Altitude Azimuth Distance (km) Brightness Sun altitude
Rises 05:31:43 0° 12° (NNE) 3,244 6.4 -21.0°
Reaches altitude 10° 05:34:02 10° 10° (N) 2,314 5.6 -20.7°
Maximum altitude 05:39:06 68° 289° (WNW) 827 2.9 -19.9°
Drops below altitude 10° 05:44:07 10° 207° (SSW) 2,299 5.2 -19.1°
Sets 05:46:25 0° 205° (SSW) 3,221 6.0 -18.7°
